ISR174 LYTV-LLBG

Flight info

Callsign ISR174
Flight time N/A
Altitude 39000
Route LASTI L607 PETAK DCT BITLA DCT SIGFO DCT AKINA DCT VANZA DCT PIKOG L609 ZUKKO
Aircraft A320/M-SDE2FGHIJ1LORVWY/S

Departure

Time N/A
Airport Tivat Airport (LYTV)

Arrival

Time 2026-05-06 14:18
Airport Ben Gurion International Airport (LLBG)
Time Latitude Longitude Altitude Speed Heading
2026-05-06 13:02 37.18339 25.98956 37099 ft 492 kts 135°
2026-05-06 13:03 37.13539 26.05087 37095 ft 493 kts 135°
2026-05-06 13:03 37.08767 26.11178 37094 ft 493 kts 135°
2026-05-06 13:04 37.03962 26.17305 37094 ft 493 kts 135°
2026-05-06 13:04 36.99157 26.23434 37080 ft 493 kts 134°
2026-05-06 13:05 36.95004 26.30246 37093 ft 493 kts 124°
2026-05-06 13:05 36.91067 26.37272 37087 ft 494 kts 124°
2026-05-06 13:06 36.87142 26.44245 37085 ft 494 kts 125°
2026-05-06 13:06 36.83179 26.51258 37083 ft 494 kts 125°
2026-05-06 13:07 36.79207 26.58265 37089 ft 495 kts 125°
2026-05-06 13:07 36.75230 26.65276 37082 ft 495 kts 125°
2026-05-06 13:08 36.71249 26.72295 37084 ft 496 kts 125°
2026-05-06 13:08 36.67285 26.79260 37088 ft 496 kts 125°
2026-05-06 13:09 36.63281 26.86269 37095 ft 497 kts 125°
2026-05-06 13:09 36.59278 26.93288 37085 ft 497 kts 125°
2026-05-06 13:10 36.55262 27.00308 37068 ft 498 kts 125°
2026-05-06 13:10 36.51259 27.07268 37074 ft 499 kts 125°
2026-05-06 13:11 36.47223 27.14280 37073 ft 499 kts 125°
2026-05-06 13:11 36.43182 27.21293 37083 ft 499 kts 125°
2026-05-06 13:12 36.39137 27.28309 37074 ft 500 kts 125°
2026-05-06 13:12 36.35078 27.35327 37074 ft 501 kts 125°
2026-05-06 13:13 36.31041 27.42299 37074 ft 501 kts 126°
2026-05-06 13:13 36.26966 27.49316 37534 ft 501 kts 126°
2026-05-06 13:13 36.24929 27.52818 37882 ft 500 kts 126°
2026-05-06 13:14 36.22895 27.56305 38224 ft 500 kts 126°
2026-05-06 13:14 36.20860 27.59791 38598 ft 499 kts 126°
2026-05-06 13:14 36.18829 27.63269 38879 ft 498 kts 126°
2026-05-06 13:14 36.16798 27.66747 39038 ft 499 kts 126°
2026-05-06 13:15 36.14768 27.70223 39070 ft 498 kts 126°
2026-05-06 13:15 36.10733 27.77109 39063 ft 498 kts 126°
2026-05-06 13:16 36.06663 27.84030 39064 ft 498 kts 126°
2026-05-06 13:16 36.02593 27.90947 39062 ft 497 kts 126°
2026-05-06 13:17 35.98527 27.97861 39061 ft 498 kts 126°
2026-05-06 13:17 35.94480 28.04733 39067 ft 498 kts 126°
2026-05-06 13:18 35.90392 28.11636 39071 ft 499 kts 126°
2026-05-06 13:18 35.86296 28.18545 39070 ft 499 kts 126°
2026-05-06 13:19 35.82190 28.25447 39065 ft 499 kts 126°
2026-05-06 13:19 35.78084 28.32335 39074 ft 499 kts 126°
2026-05-06 13:20 35.74007 28.39183 39085 ft 499 kts 126°
2026-05-06 13:20 35.69905 28.46062 39083 ft 498 kts 126°
2026-05-06 13:21 35.65795 28.52929 39085 ft 498 kts 126°
2026-05-06 13:21 35.61685 28.59784 39087 ft 498 kts 126°
2026-05-06 13:22 35.57594 28.66579 39085 ft 498 kts 126°
2026-05-06 13:22 35.53473 28.73409 39088 ft 498 kts 126°
2026-05-06 13:23 35.49356 28.80236 39087 ft 498 kts 126°
2026-05-06 13:23 35.45237 28.87053 39075 ft 497 kts 127°
2026-05-06 13:24 35.41142 28.93815 39078 ft 497 kts 127°
2026-05-06 13:24 35.37018 29.00609 39085 ft 497 kts 127°
2026-05-06 13:25 35.32891 29.07392 39087 ft 496 kts 127°
2026-05-06 13:25 35.28767 29.14168 39083 ft 496 kts 127°
2026-05-06 13:26 35.24660 29.20892 39084 ft 496 kts 127°
2026-05-06 13:26 35.20520 29.27649 39081 ft 496 kts 127°
2026-05-06 13:27 35.16374 29.34399 39083 ft 496 kts 127°
2026-05-06 13:27 35.12236 29.41148 39081 ft 496 kts 127°
2026-05-06 13:28 35.08091 29.47893 39081 ft 497 kts 127°
2026-05-06 13:28 35.03966 29.54589 39075 ft 497 kts 128°
2026-05-06 13:29 34.99815 29.61318 39080 ft 496 kts 128°
2026-05-06 13:29 34.95656 29.68034 39086 ft 496 kts 128°
2026-05-06 13:30 34.91497 29.74738 39088 ft 496 kts 128°
2026-05-06 13:30 34.87361 29.81397 39090 ft 496 kts 128°
2026-05-06 13:31 34.83202 29.88099 39091 ft 496 kts 128°
2026-05-06 13:31 34.79034 29.94789 39091 ft 496 kts 128°
2026-05-06 13:32 34.74993 30.01520 39094 ft 496 kts 122°
2026-05-06 13:32 34.71374 30.08669 39092 ft 497 kts 122°
2026-05-06 13:33 34.67749 30.15810 39095 ft 496 kts 123°
2026-05-06 13:33 34.64117 30.22941 39072 ft 496 kts 123°
2026-05-06 13:34 34.60482 30.30059 39085 ft 496 kts 123°
2026-05-06 13:34 34.56867 30.37124 39089 ft 496 kts 123°
2026-05-06 13:35 34.53220 30.44224 39095 ft 496 kts 123°
2026-05-06 13:35 34.49574 30.51321 39097 ft 496 kts 123°
2026-05-06 13:36 34.45928 30.58416 39095 ft 496 kts 123°
2026-05-06 13:36 34.42274 30.65500 39092 ft 496 kts 123°
2026-05-06 13:37 34.38639 30.72533 39094 ft 496 kts 123°
2026-05-06 13:37 34.34977 30.79608 39095 ft 496 kts 123°
2026-05-06 13:38 34.31315 30.86679 39100 ft 496 kts 123°
2026-05-06 13:38 34.27645 30.93739 39100 ft 496 kts 124°
2026-05-06 13:39 34.23995 31.00747 39093 ft 496 kts 124°
2026-05-06 13:39 34.20313 31.07799 39100 ft 496 kts 124°
2026-05-06 13:40 34.16629 31.14844 39098 ft 496 kts 124°
2026-05-06 13:40 34.12943 31.21890 39099 ft 496 kts 124°
2026-05-06 13:41 34.09253 31.28931 39096 ft 496 kts 124°
2026-05-06 13:41 34.05573 31.35917 39100 ft 497 kts 124°
2026-05-06 13:42 34.01868 31.42948 39097 ft 497 kts 124°
2026-05-06 13:42 33.98159 31.49973 39101 ft 497 kts 124°
2026-05-06 13:43 33.94447 31.56998 39099 ft 497 kts 125°
2026-05-06 13:43 33.90753 31.63968 39102 ft 497 kts 125°
2026-05-06 13:44 33.87026 31.70979 39107 ft 497 kts 125°
2026-05-06 13:44 33.83299 31.77986 39107 ft 497 kts 125°
2026-05-06 13:45 33.79565 31.84987 39103 ft 497 kts 125°
2026-05-06 13:45 33.73986 31.95436 39103 ft 498 kts 126°
2026-05-06 13:46 33.70237 32.02425 39102 ft 498 kts 126°
2026-05-06 13:46 33.66486 32.09414 39085 ft 498 kts 126°
2026-05-06 13:47 33.62723 32.16411 39088 ft 499 kts 126°
2026-05-06 13:47 33.58983 32.23362 39094 ft 500 kts 126°
2026-05-06 13:48 33.55209 32.30359 39098 ft 500 kts 126°
2026-05-06 13:48 33.51427 32.37351 39099 ft 500 kts 126°
2026-05-06 13:49 33.47635 32.44334 39101 ft 500 kts 126°
2026-05-06 13:49 33.43867 32.51273 39103 ft 500 kts 126°
2026-05-06 13:50 33.40072 32.58255 39104 ft 500 kts 126°
2026-05-06 13:50 33.36241 32.65284 38681 ft 509 kts 126°
2026-05-06 13:51 33.34296 32.68841 38413 ft 513 kts 126°
2026-05-06 13:51 33.32334 32.72416 38135 ft 515 kts 126°
2026-05-06 13:51 33.30366 32.75997 37864 ft 516 kts 126°
2026-05-06 13:51 33.28425 32.79536 37598 ft 516 kts 126°
2026-05-06 13:52 33.26460 32.83127 37287 ft 517 kts 126°
2026-05-06 13:52 33.24490 32.86733 36498 ft 519 kts 126°
2026-05-06 13:52 33.22518 32.90345 35608 ft 519 kts 126°
2026-05-06 13:52 33.20540 32.93956 34648 ft 521 kts 126°
2026-05-06 13:53 33.18549 32.97573 33686 ft 522 kts 127°
2026-05-06 13:53 33.16547 33.01203 32493 ft 525 kts 127°
2026-05-06 13:53 33.14539 33.04843 31478 ft 525 kts 127°
2026-05-06 13:53 33.12535 33.08478 30938 ft 525 kts 127°
2026-05-06 13:54 33.10549 33.12075 30213 ft 527 kts 127°
2026-05-06 13:54 33.08528 33.15735 29432 ft 529 kts 127°
2026-05-06 13:54 33.06503 33.19401 28709 ft 531 kts 127°
2026-05-06 13:54 33.04468 33.23083 27981 ft 533 kts 127°
2026-05-06 13:55 33.02423 33.26769 27247 ft 534 kts 127°
2026-05-06 13:55 33.00368 33.30462 26518 ft 536 kts 127°
2026-05-06 13:55 32.98313 33.34158 25794 ft 533 kts 127°
2026-05-06 13:55 32.96278 33.37823 25097 ft 529 kts 127°
2026-05-06 13:56 32.94284 33.41411 24435 ft 524 kts 127°
2026-05-06 13:56 32.92277 33.45011 23783 ft 519 kts 127°
2026-05-06 13:56 32.90290 33.48574 23092 ft 515 kts 127°
2026-05-06 13:56 32.88321 33.52107 22492 ft 510 kts 126°
2026-05-06 13:57 32.86370 33.55605 21860 ft 504 kts 126°
2026-05-06 13:57 32.84439 33.59063 21213 ft 499 kts 126°
2026-05-06 13:57 32.82475 33.62429 20580 ft 491 kts 132°
2026-05-06 13:57 32.80186 33.65386 19969 ft 483 kts 137°
2026-05-06 13:58 32.77897 33.68207 19341 ft 478 kts 137°
2026-05-06 13:58 32.75602 33.71030 18712 ft 473 kts 137°
2026-05-06 13:58 32.73331 33.73822 18022 ft 468 kts 137°
2026-05-06 13:58 32.71084 33.76588 17382 ft 462 kts 137°
2026-05-06 13:59 32.69060 33.79559 17046 ft 470 kts 126°
2026-05-06 13:59 32.67266 33.82831 16613 ft 474 kts 125°
2026-05-06 13:59 32.65477 33.86107 16081 ft 471 kts 124°
2026-05-06 13:59 32.63708 33.89356 15575 ft 467 kts 124°
2026-05-06 14:00 32.61982 33.92535 15070 ft 462 kts 124°
2026-05-06 14:00 32.60252 33.95720 14574 ft 457 kts 124°
2026-05-06 14:00 32.58534 33.98873 14083 ft 453 kts 124°
2026-05-06 14:00 32.56833 34.01990 13565 ft 448 kts 124°
2026-05-06 14:01 32.55149 34.05073 13020 ft 443 kts 124°
2026-05-06 14:01 32.53482 34.08123 12487 ft 439 kts 124°
2026-05-06 14:01 32.51829 34.11145 11952 ft 434 kts 124°
2026-05-06 14:01 32.50194 34.14127 11446 ft 430 kts 124°
2026-05-06 14:02 32.48572 34.17084 10935 ft 426 kts 124°
2026-05-06 14:02 32.46965 34.20010 10438 ft 422 kts 123°
2026-05-06 14:02 32.45393 34.22870 9940 ft 418 kts 123°
2026-05-06 14:02 32.43817 34.25735 9398 ft 413 kts 123°
2026-05-06 14:03 32.42262 34.28567 8853 ft 408 kts 123°
2026-05-06 14:03 32.40719 34.31375 8657 ft 406 kts 123°
2026-05-06 14:03 32.39182 34.34165 8526 ft 405 kts 123°
2026-05-06 14:03 32.37643 34.36955 8401 ft 404 kts 123°
2026-05-06 14:04 32.36109 34.39734 8276 ft 403 kts 123°
2026-05-06 14:04 32.34576 34.42502 8149 ft 402 kts 123°
2026-05-06 14:04 32.33048 34.45260 8024 ft 400 kts 123°
2026-05-06 14:04 32.31525 34.48013 7904 ft 399 kts 123°
2026-05-06 14:05 32.30031 34.50716 7775 ft 397 kts 123°
2026-05-06 14:05 32.28523 34.53441 7663 ft 396 kts 123°
2026-05-06 14:05 32.27030 34.56143 7530 ft 395 kts 123°
2026-05-06 14:05 32.25549 34.58822 7411 ft 395 kts 124°
2026-05-06 14:06 32.24040 34.61545 7288 ft 394 kts 124°
2026-05-06 14:06 32.22540 34.64249 7163 ft 393 kts 124°
2026-05-06 14:06 32.21045 34.66941 7049 ft 392 kts 124°
2026-05-06 14:06 32.19553 34.69627 6917 ft 391 kts 124°
2026-05-06 14:07 32.18282 34.71914 6810 ft 391 kts 124°
2026-05-06 14:07 32.16791 34.74589 6687 ft 387 kts 124°
2026-05-06 14:07 32.15399 34.77285 6563 ft 383 kts 117°
2026-05-06 14:07 32.14273 34.80125 6445 ft 381 kts 116°
2026-05-06 14:08 32.13162 34.82951 6301 ft 362 kts 116°
2026-05-06 14:08 32.12152 34.85524 6174 ft 340 kts 116°
2026-05-06 14:08 32.11175 34.88003 6044 ft 330 kts 116°
2026-05-06 14:08 32.10221 34.90407 5949 ft 328 kts 116°
2026-05-06 14:09 32.09252 34.92846 5989 ft 329 kts 117°
2026-05-06 14:09 32.08286 34.95276 5982 ft 322 kts 116°
2026-05-06 14:09 32.07367 34.97594 5981 ft 303 kts 116°
2026-05-06 14:09 32.06487 34.99815 5977 ft 298 kts 116°
2026-05-06 14:10 32.05606 35.02029 5982 ft 299 kts 116°
2026-05-06 14:10 32.04721 35.04253 5959 ft 301 kts 116°
2026-05-06 14:10 32.03838 35.06480 5844 ft 299 kts 116°
2026-05-06 14:10 32.02972 35.08667 5718 ft 298 kts 116°
2026-05-06 14:11 32.02113 35.10834 5588 ft 286 kts 116°
2026-05-06 14:11 32.01109 35.12816 5373 ft 278 kts 133°
2026-05-06 14:11 31.99641 35.14186 5305 ft 264 kts 155°
2026-05-06 14:11 31.97941 35.14806 5248 ft 249 kts 176°
2026-05-06 14:12 31.96281 35.14697 5194 ft 232 kts 197°
2026-05-06 14:12 31.94845 35.13997 5137 ft 215 kts 216°
2026-05-06 14:12 31.93691 35.12949 5010 ft 206 kts 221°
2026-05-06 14:12 31.92591 35.11894 4808 ft 203 kts 223°
2026-05-06 14:13 31.91519 35.10870 4579 ft 200 kts 222°
2026-05-06 14:13 31.90643 35.09601 4153 ft 202 kts 251°
2026-05-06 14:13 31.90495 35.08008 3907 ft 196 kts 282°
2026-05-06 14:13 31.91036 35.06571 3668 ft 192 kts 301°
2026-05-06 14:14 31.91738 35.05241 3404 ft 191 kts 302°
2026-05-06 14:14 31.92436 35.03914 3133 ft 190 kts 301°
2026-05-06 14:14 31.93122 35.02604 2889 ft 187 kts 302°
2026-05-06 14:14 31.93804 35.01300 2589 ft 186 kts 302°
2026-05-06 14:15 31.94468 35.00028 2329 ft 184 kts 303°
2026-05-06 14:15 31.95122 34.98775 2079 ft 175 kts 302°
2026-05-06 14:15 31.95729 34.97612 1831 ft 157 kts 302°
2026-05-06 14:15 31.96273 34.96567 1623 ft 142 kts 302°
2026-05-06 14:16 31.96767 34.95619 1438 ft 136 kts 303°
2026-05-06 14:16 31.97274 34.94653 1232 ft 142 kts 303°
2026-05-06 14:16 31.97791 34.93682 983 ft 136 kts 304°
2026-05-06 14:16 31.98279 34.92745 783 ft 130 kts 301°
2026-05-06 14:17 31.98743 34.91837 628 ft 129 kts 305°
2026-05-06 14:17 31.99192 34.90975 485 ft 123 kts 303°
2026-05-06 14:17 31.99651 34.90092 325 ft 131 kts 304°
2026-05-06 14:17 32.00134 34.89164 138 ft 131 kts 302°
2026-05-06 14:18 32.00538 34.88383 121 ft 89 kts 302°
2026-05-06 14:18 32.00772 34.87938 118 ft 42 kts 302°
2026-05-06 14:18 32.00918 34.87650 120 ft 38 kts 301°
2026-05-06 14:18 32.01023 34.87433 120 ft 27 kts 295°
2026-05-06 14:19 32.01060 34.87240 121 ft 20 kts 274°
2026-05-06 14:19 32.01063 34.87089 120 ft 15 kts 266°
2026-05-06 14:19 32.00993 34.87078 119 ft 14 kts 126°
2026-05-06 14:19 32.00959 34.87145 119 ft 8 kts 119°
2026-05-06 14:20 32.00925 34.87214 118 ft 11 kts 122°
2026-05-06 14:20 32.00878 34.87303 119 ft 15 kts 122°
2026-05-06 14:20 32.00822 34.87356 119 ft 10 kts 193°
2026-05-06 14:20 32.00747 34.87306 120 ft 14 kts 205°
2026-05-06 14:21 32.00665 34.87304 117 ft 11 kts 156°
2026-05-06 14:21 32.00617 34.87348 120 ft 7 kts 147°
2026-05-06 14:21 32.00597 34.87352 120 ft 1 kts 184°
2026-05-06 14:21 32.00593 34.87352 119 ft 0 kts 182°